Weather History for Whiting Fld NAS, FL

Change the Weather History Date:

Sunday, October 23, 2011

  Actual Average Record
Temperature  
Mean Temperature 58 °F -  
Max Temperature 77 °F 76 °F 86 °F (2010)
Min Temperature 42 °F 56 °F 39 °F (2006)
Degree Days  
Heating Degree Days 6    
Growing Degree Days 8 (Base 50)    
Moisture  
Dew Point 45 °F    
Average Humidity 66    
Maximum Humidity 93    
Minimum Humidity 32    
Precipitation  
Precipitation 0.00 in - - ()
Sea Level Pressure  
Sea Level Pressure 30.05 in    
Wind  
Wind Speed 2 mph (North)    
Max Wind Speed 7 mph    
Max Gust Speed -    
Visibility 10 miles    
Events      
Averages and records for this station are not official NWS values.
T = Trace of Precipitation, MM = Missing Value Source: NWS Daily Summary

Daily Weather History Graph

Daily Weather History Graph

Search for Another Location

Airport:

Trip Planner

Search our weather history database for the weather conditions in past years. The results will help you decide how hot, cold, wet, or windy it might be!

Date:

Astronomy

Oct. 23, 2011 Rise Set
Actual Time 6:55 AM CDT 6:08 PM CDT
Civil Twilight 6:31 AM CDT 6:32 PM CDT
Nautical Twilight 6:03 AM CDT 7:01 PM CDT
Astronomical Twilight 5:35 AM CDT 7:29 PM CDT
Moon 3:16 AM CDT (10/23) 3:48 PM CDT (10/23)
Length of Visible Light 12h 01m
Length of Day
11h 12m
Waning Crescent, 14% of the Moon is Illuminated
Oct 23
Waning Crescent
Oct 26
New
Nov 2
First Quarter
Nov 10
Full
Nov 18
Last Quarter

Hourly Weather History & Observations

Time (CDT) Temp. Windchill Dew Point Humidity Pressure Visibility Wind Dir Wind Speed Gust Speed Precip Events Conditions
12:56 AM 45.0 °F - 42.1 °F 90% 30.04 in 10.0 mi Calm Calm - N/A   Clear
1:56 AM 43.0 °F - 41.0 °F 93% 30.03 in 10.0 mi Calm Calm - N/A   Clear
2:56 AM 42.1 °F 40.2 °F 39.9 °F 92% 30.03 in 10.0 mi North 3.5 mph - N/A   Clear
3:56 AM 45.0 °F 42.6 °F 41.0 °F 86% 30.03 in 10.0 mi North 4.6 mph - N/A   Clear
4:56 AM 42.1 °F - 39.9 °F 92% 30.03 in 10.0 mi Calm Calm - N/A   Clear
5:56 AM 44.1 °F 40.8 °F 39.9 °F 85% 30.05 in 10.0 mi North 5.8 mph - N/A   Clear
6:56 AM 42.1 °F 39.2 °F 39.0 °F 89% 30.06 in 10.0 mi NNW 4.6 mph - N/A   Clear
7:56 AM 50.0 °F - 44.1 °F 80% 30.06 in 10.0 mi Calm Calm - N/A   Clear
8:56 AM 57.9 °F - 46.0 °F 65% 30.08 in 10.0 mi Calm Calm - N/A   Clear
9:56 AM 64.9 °F - 46.9 °F 52% 30.07 in 10.0 mi East 6.9 mph - N/A   Clear
10:56 AM 70.0 °F - 44.1 °F 39% 30.08 in 10.0 mi Calm Calm - N/A   Clear
11:56 AM 72.0 °F - 43.0 °F 35% 30.07 in 10.0 mi Calm Calm - N/A   Clear
12:56 PM 73.0 °F - 45.0 °F 37% 30.03 in 10.0 mi NE 5.8 mph - N/A   Clear
1:56 PM 75.9 °F - 45.0 °F 33% 30.02 in 10.0 mi Variable 3.5 mph - N/A   Clear
2:56 PM 75.9 °F - 44.1 °F 32% 30.01 in 10.0 mi NE 4.6 mph - N/A   Clear
3:56 PM 75.0 °F - 44.1 °F 33% 30.01 in 10.0 mi Calm Calm - N/A   Scattered Clouds
4:56 PM 75.0 °F - 44.1 °F 33% 30.01 in 10.0 mi Calm Calm - N/A   Partly Cloudy
5:56 PM 68.0 °F - 51.1 °F 55% 30.02 in 10.0 mi Calm Calm - N/A   Scattered Clouds
6:56 PM 61.0 °F - 50.0 °F 67% 30.03 in 10.0 mi South 4.6 mph - N/A   Partly Cloudy
7:56 PM 60.1 °F - 50.0 °F 69% 30.05 in 10.0 mi Calm Calm - N/A   Clear
8:56 PM 57.0 °F - 51.1 °F 81% 30.06 in 10.0 mi Calm Calm - N/A   Clear
9:56 PM 55.0 °F - 50.0 °F 83% 30.07 in 10.0 mi WNW 3.5 mph - N/A   Clear
10:56 PM 57.0 °F - 50.0 °F 77% 30.07 in 10.0 mi Calm Calm - N/A   Clear
11:56 PM 52.0 °F - 48.9 °F 89% 30.07 in 10.0 mi West 5.8 mph - N/A   Clear